| time (UTC) | temp F | wind direction | speed MPH | gust MPH | rain 1hr in | rain 24hr in | rain mn in | humidity % | barometer mb |
| 20260901205602 | 59 | 156 | 2.0 | 4.0 | 0.00 | 0.09 | 0.09 | 88 | 1019.1 |
| 20260901205103 | 59 | 178 | 0.0 | 5.0 | 0.00 | 0.09 | 0.09 | 88 | 1019.1 |
| 20260901204558 | 59 | 159 | 1.0 | 5.0 | 0.00 | 0.09 | 0.09 | 88 | 1019.1 |
| 20260901204108 | 59 | 160 | 1.0 | 4.0 | 0.00 | 0.09 | 0.09 | 88 | 1019.1 |
| 20260901203559 | 59 | 191 | 2.0 | 3.0 | 0.00 | 0.09 | 0.09 | 88 | 1019.1 |
| 20260901203100 | 59 | 188 | 0.0 | 3.0 | 0.00 | 0.09 | 0.09 | 88 | 1019.1 |
| 20260901202601 | 59 | 197 | 1.0 | 3.0 | 0.01 | 0.09 | 0.09 | 88 | 1019.0 |
| 20260901202101 | 59 | 202 | 1.0 | 3.0 | 0.01 | 0.09 | 0.09 | 88 | 1019.0 |
| 20260901201559 | 60 | 211 | 0.0 | 3.0 | 0.01 | 0.09 | 0.09 | 88 | 1018.9 |
| 20260901201059 | 60 | 227 | 0.0 | 4.0 | 0.01 | 0.09 | 0.09 | 89 | 1018.9 |
| 20260901200600 | 60 | 186 | 1.0 | 4.0 | 0.01 | 0.09 | 0.09 | 89 | 1018.9 |
| 20260901200058 | 60 | 190 | 1.0 | 4.0 | 0.01 | 0.09 | 0.09 | 88 | 1018.9 |
| 20260901195558 | 60 | 182 | 2.0 | 4.0 | 0.01 | 0.09 | 0.09 | 88 | 1018.9 |
| 20260901195102 | 60 | 199 | 2.0 | 5.0 | 0.01 | 0.09 | 0.09 | 88 | 1018.9 |
| 20260901194558 | 60 | 200 | 3.0 | 5.0 | 0.01 | 0.09 | 0.09 | 88 | 1019.0 |
| 20260901194058 | 60 | 196 | 2.0 | 5.0 | 0.01 | 0.09 | 0.09 | 88 | 1019.0 |
| 20260901193557 | 60 | 161 | 1.0 | 7.0 | 0.01 | 0.09 | 0.09 | 88 | 1018.9 |
| 20260901193057 | 60 | 223 | 2.0 | 15.0 | 0.01 | 0.09 | 0.09 | 88 | 1018.9 |
| 20260901192557 | 60 | 218 | 4.0 | 15.0 | 0.00 | 0.08 | 0.08 | 88 | 1018.9 |
| 20260901192059 | 60 | 222 | 4.0 | 9.0 | 0.00 | 0.08 | 0.08 | 89 | 1018.9 |
| 20260901191605 | 59 | 202 | 4.0 | 10.0 | 0.00 | 0.08 | 0.08 | 88 | 1018.9 |
| 20260901191059 | 59 | 209 | 2.0 | 5.0 | 0.00 | 0.08 | 0.08 | 88 | 1018.9 |
| 20260901190558 | 59 | 223 | 2.0 | 5.0 | 0.00 | 0.08 | 0.08 | 88 | 1018.9 |
| 20260901190059 | 59 | 220 | 1.0 | 4.0 | 0.00 | 0.08 | 0.08 | 88 | 1018.8 |
| 20260901185559 | 59 | 198 | 1.0 | 4.0 | 0.00 | 0.08 | 0.08 | 88 | 1018.8 |
| 20260901185059 | 59 | 235 | 1.0 | 5.0 | 0.00 | 0.08 | 0.08 | 88 | 1018.8 |
| 20260901184559 | 60 | 182 | 2.0 | 4.0 | 0.00 | 0.08 | 0.08 | 88 | 1018.7 |
| 20260901184059 | 60 | 218 | 2.0 | 4.0 | 0.00 | 0.08 | 0.08 | 88 | 1018.6 |
| 20260901183558 | 60 | 209 | 2.0 | 4.0 | 0.00 | 0.08 | 0.08 | 88 | 1018.7 |
| 20260901183102 | 60 | 218 | 1.0 | 5.0 | 0.00 | 0.08 | 0.08 | 88 | 1018.6 |
| 20260901182603 | 60 | 209 | 0.0 | 5.0 | 0.00 | 0.08 | 0.08 | 88 | 1018.5 |
| 20260901182059 | 60 | 234 | 0.0 | 3.0 | 0.00 | 0.08 | 0.08 | 88 | 1018.4 |
| 20260901181606 | 61 | 216 | 0.0 | 2.0 | 0.00 | 0.08 | 0.08 | 88 | 1018.4 |
| 20260901181101 | 61 | 242 | 0.0 | 3.0 | 0.00 | 0.08 | 0.08 | 88 | 1018.4 |
| 20260901180559 | 61 | 220 | 0.0 | 4.0 | 0.00 | 0.08 | 0.08 | 88 | 1018.3 |
| 20260901180059 | 61 | 232 | 2.0 | 5.0 | 0.00 | 0.08 | 0.08 | 88 | 1018.3 |
| 20260901175558 | 61 | 211 | 1.0 | 4.0 | 0.00 | 0.08 | 0.08 | 88 | 1018.2 |
| 20260901175057 | 61 | 223 | 1.0 | 4.0 | 0.00 | 0.08 | 0.08 | 88 | 1018.2 |
| 20260901174558 | 61 | 228 | 1.0 | 5.0 | 0.00 | 0.08 | 0.08 | 88 | 1018.2 |
| 20260901174059 | 61 | 197 | 2.0 | 5.0 | 0.00 | 0.08 | 0.08 | 88 | 1018.0 |
| 20260901173559 | 61 | 209 | 1.0 | 5.0 | 0.00 | 0.08 | 0.08 | 88 | 1018.0 |
| 20260901173103 | 61 | 202 | 0.0 | 3.0 | 0.00 | 0.08 | 0.08 | 88 | 1017.9 |
| 20260901172558 | 62 | 241 | 0.0 | 3.0 | 0.00 | 0.08 | 0.08 | 88 | 1017.9 |
| 20260901172101 | 62 | 236 | 0.0 | 3.0 | 0.00 | 0.08 | 0.08 | 88 | 1017.8 |
| 20260901172001 | 62 | 215 | 0.0 | 3.0 | 0.00 | 0.08 | 0.08 | 88 | 1017.8 |
| 20260901171604 | 62 | 220 | 0.0 | 1.0 | 0.00 | 0.08 | 0.08 | 88 | 1017.8 |
| 20260901171058 | 63 | 228 | 0.0 | 1.0 | 0.01 | 0.08 | 0.08 | 87 | 1017.8 |
| 20260901170558 | 63 | 207 | 0.0 | 2.0 | 0.01 | 0.08 | 0.08 | 87 | 1017.8 |
| 20260901170058 | 63 | 284 | 0.0 | 4.0 | 0.01 | 0.08 | 0.08 | 87 | 1017.8 |
| 20260901170006 | 63 | 271 | 0.0 | 4.0 | 0.01 | 0.08 | 0.08 | 87 | 1017.8 |
| 20260901165558 | 63 | 220 | 0.0 | 5.0 | 0.01 | 0.08 | 0.08 | 87 | 1017.8 |
| 20260901165059 | 64 | 240 | 1.0 | 6.0 | 0.02 | 0.08 | 0.08 | 87 | 1017.7 |
| 20260901164559 | 64 | 233 | 2.0 | 5.0 | 0.02 | 0.08 | 0.08 | 87 | 1017.7 |
| 20260901164059 | 64 | 207 | 0.0 | 5.0 | 0.02 | 0.08 | 0.08 | 87 | 1017.7 |
| 20260901163559 | 65 | 267 | 2.0 | 5.0 | 0.02 | 0.08 | 0.08 | 87 | 1017.7 |
| 20260901163059 | 65 | 284 | 0.0 | 10.0 | 0.02 | 0.08 | 0.08 | 87 | 1017.7 |
| 20260901162603 | 65 | 319 | 2.0 | 10.0 | 0.04 | 0.08 | 0.08 | 87 | 1017.7 |
| 20260901162100 | 65 | 248 | 2.0 | 6.0 | 0.04 | 0.08 | 0.08 | 88 | 1017.7 |
| 20260901161610 | 64 | 195 | 0.0 | 6.0 | 0.05 | 0.08 | 0.08 | 88 | 1017.6 |
| 20260901161059 | 64 | 244 | 1.0 | 5.0 | 0.04 | 0.07 | 0.07 | 88 | 1017.5 |
| 20260901160558 | 64 | 225 | 1.0 | 4.0 | 0.04 | 0.07 | 0.07 | 88 | 1017.5 |
| 20260901160110 | 64 | 264 | 2.0 | 4.0 | 0.05 | 0.07 | 0.07 | 88 | 1017.4 |
| 20260901160001 | 64 | 301 | 2.0 | 4.0 | 0.06 | 0.07 | 0.07 | 88 | 1017.4 |
| 20260901155559 | 64 | 140 | 0.0 | 3.0 | 0.07 | 0.07 | 0.07 | 88 | 1017.4 |
| 20260901155102 | 64 | 294 | 1.0 | 6.0 | 0.06 | 0.06 | 0.06 | 88 | 1017.4 |
| 20260901154601 | 64 | 193 | 1.0 | 6.0 | 0.06 | 0.06 | 0.06 | 88 | 1017.4 |
| 20260901154059 | 64 | 288 | 3.0 | 6.0 | 0.06 | 0.06 | 0.06 | 88 | 1017.4 |
| 20260901154003 | 63 | 207 | 3.0 | 6.0 | 0.06 | 0.06 | 0.06 | 88 | 1017.4 |
| 20260901153559 | 64 | 215 | 1.0 | 4.0 | 0.06 | 0.06 | 0.06 | 88 | 1017.4 |
| 20260901153059 | 64 | 296 | 2.0 | 5.0 | 0.06 | 0.06 | 0.06 | 87 | 1017.4 |
| 20260901152558 | 64 | 29 | 1.0 | 5.0 | 0.04 | 0.04 | 0.04 | 87 | 1017.2 |
| 20260901152059 | 64 | 303 | 0.0 | 3.0 | 0.04 | 0.04 | 0.04 | 87 | 1017.2 |
| 20260901151600 | 64 | 297 | 0.0 | 5.0 | 0.03 | 0.03 | 0.03 | 86 | 1017.2 |
| 20260901151102 | 65 | 272 | 1.0 | 9.0 | 0.03 | 0.03 | 0.03 | 85 | 1017.2 |
| 20260901150559 | 66 | 223 | 2.0 | 10.0 | 0.03 | 0.03 | 0.03 | 83 | 1017.2 |
| 20260901150059 | 67 | 223 | 4.0 | 9.0 | 0.02 | 0.02 | 0.02 | 80 | 1017.1 |
| 20260901145559 | 67 | 227 | 2.0 | 7.0 | 0.00 | 0.00 | 0.00 | 79 | 1017.1 |
| 20260901145059 | 67 | 221 | 3.0 | 15.0 | 0.00 | 0.00 | 0.00 | 79 | 1017.1 |
| 20260901144659 | 67 | 205 | 7.0 | 15.0 | 0.00 | 0.00 | 0.00 | 78 | 1017.1 |
| 20260901144103 | 67 | 197 | 5.0 | 20.0 | 0.00 | 0.00 | 0.00 | 78 | 1017.1 |
| 20260901143559 | 68 | 238 | 6.0 | 20.0 | 0.00 | 0.00 | 0.00 | 77 | 1017.2 |
| 20260901143100 | 67 | 286 | 8.0 | 12.0 | 0.00 | 0.00 | 0.00 | 77 | 1017.2 |
| 20260901142558 | 68 | 236 | 7.0 | 19.0 | 0.00 | 0.00 | 0.00 | 76 | 1017.2 |
| 20260901142058 | 68 | 214 | 8.0 | 19.0 | 0.00 | 0.00 | 0.00 | 76 | 1017.2 |
| 20260901141558 | 68 | 235 | 7.0 | 15.0 | 0.00 | 0.00 | 0.00 | 76 | 1017.1 |
| 20260901141059 | 67 | 249 | 7.0 | 11.0 | 0.00 | 0.00 | 0.00 | 79 | 1017.2 |
| 20260901140559 | 66 | 236 | 5.0 | 10.0 | 0.00 | 0.00 | 0.00 | 80 | 1017.0 |
| 20260901140103 | 66 | 218 | 5.0 | 10.0 | 0.00 | 0.00 | 0.00 | 79 | 1017.0 |
| 20260901135557 | 66 | 205 | 5.0 | 12.0 | 0.00 | 0.00 | 0.00 | 79 | 1017.1 |
| 20260901135057 | 66 | 221 | 6.0 | 15.0 | 0.00 | 0.00 | 0.00 | 78 | 1017.2 |
| 20260901134558 | 66 | 229 | 8.0 | 15.0 | 0.00 | 0.00 | 0.00 | 76 | 1017.1 |
| 20260901134100 | 67 | 243 | 8.0 | 18.0 | 0.00 | 0.00 | 0.00 | 74 | 1017.1 |
| 20260901133701 | 67 | 205 | 8.0 | 18.0 | 0.00 | 0.00 | 0.00 | 73 | 1017.2 |
| 20260901133058 | 69 | 223 | 6.0 | 15.0 | 0.00 | 0.00 | 0.00 | 72 | 1017.1 |
| 20260901132559 | 69 | 227 | 7.0 | 15.0 | 0.00 | 0.00 | 0.00 | 70 | 1017.1 |
| 20260901132058 | 69 | 219 | 4.0 | 15.0 | 0.00 | 0.00 | 0.00 | 70 | 1017.0 |
| 20260901131558 | 70 | 265 | 5.0 | 12.0 | 0.00 | 0.00 | 0.00 | 71 | 1017.0 |
| 20260901131100 | 69 | 248 | 3.0 | 10.0 | 0.00 | 0.00 | 0.00 | 72 | 1017.0 |
| 20260901130558 | 68 | 246 | 6.0 | 17.0 | 0.00 | 0.00 | 0.00 | 72 | 1017.0 |
| 20260901125558 | 68 | 262 | 6.0 | 16.0 | 0.00 | 0.00 | 0.00 | 73 | 1017.0 |
| 20260901125100 | 68 | 240 | 5.0 | 14.0 | 0.00 | 0.00 | 0.00 | 73 | 1017.0 |
| 20260901124559 | 67 | 221 | 5.0 | 18.0 | 0.00 | 0.00 | 0.00 | 76 | 1017.0 |
| 20260901124058 | 66 | 247 | 8.0 | 18.0 | 0.00 | 0.00 | 0.00 | 77 | 1017.1 |
| 20260901123558 | 66 | 238 | 6.0 | 16.0 | 0.00 | 0.00 | 0.00 | 76 | 1017.0 |
| 20260901123100 | 66 | 228 | 7.0 | 16.0 | 0.00 | 0.00 | 0.00 | 74 | 1017.0 |
| 20260901122559 | 67 | 232 | 8.0 | 12.0 | 0.00 | 0.00 | 0.00 | 72 | 1017.0 |
| 20260901122100 | 68 | 240 | 4.0 | 16.0 | 0.00 | 0.00 | 0.00 | 70 | 1016.8 |
| 20260901121600 | 68 | 226 | 9.0 | 16.0 | 0.00 | 0.00 | 0.00 | 70 | 1016.8 |
| 20260901121059 | 67 | 215 | 2.0 | 9.0 | 0.00 | 0.00 | 0.00 | 72 | 1016.8 |
| 20260901120559 | 67 | 205 | 4.0 | 14.0 | 0.00 | 0.00 | 0.00 | 71 | 1016.8 |
| 20260901120059 | 67 | 225 | 7.0 | 18.0 | 0.00 | 0.00 | 0.00 | 70 | 1016.9 |
| 20260901115600 | 68 | 240 | 7.0 | 18.0 | 0.00 | 0.00 | 0.00 | 68 | 1016.9 |
| 20260901115059 | 68 | 295 | 4.0 | 18.0 | 0.00 | 0.00 | 0.00 | 67 | 1016.8 |
| 20260901114639 | 69 | 193 | 8.0 | 12.0 | 0.00 | 0.00 | 0.00 | 68 | 1016.8 |
| 20260901114059 | 68 | 221 | 5.0 | 18.0 | 0.00 | 0.00 | 0.00 | 69 | 1016.8 |
| 20260901113558 | 68 | 221 | 8.0 | 18.0 | 0.00 | 0.00 | 0.00 | 69 | 1016.7 |
| 20260901113059 | 68 | 233 | 7.0 | 16.0 | 0.00 | 0.00 | 0.00 | 69 | 1016.9 |
| 20260901113001 | 68 | 211 | 7.0 | 15.0 | 0.00 | 0.00 | 0.00 | 69 | 1016.8 |
| 20260901112558 | 68 | 209 | 6.0 | 14.0 | 0.00 | 0.00 | 0.00 | 69 | 1016.8 |
| 20260901112058 | 68 | 324 | 5.0 | 12.0 | 0.00 | 0.00 | 0.00 | 68 | 1016.8 |
| 20260901111559 | 69 | 292 | 5.0 | 12.0 | 0.00 | 0.00 | 0.00 | 66 | 1016.8 |
| 20260901111059 | 69 | 269 | 4.0 | 18.0 | 0.00 | 0.00 | 0.00 | 68 | 1016.7 |
| 20260901110601 | 68 | 193 | 7.0 | 18.0 | 0.00 | 0.00 | 0.00 | 67 | 1016.8 |
| 20260901110101 | 68 | 207 | 2.0 | 17.0 | 0.00 | 0.00 | 0.00 | 71 | 1016.8 |
| 20260901105558 | 66 | 257 | 9.0 | 17.0 | 0.00 | 0.00 | 0.00 | 71 | 1016.9 |
| 20260901105058 | 66 | 240 | 6.0 | 13.0 | 0.00 | 0.00 | 0.00 | 71 | 1016.8 |
| 20260901104557 | 67 | 219 | 5.0 | 15.0 | 0.00 | 0.00 | 0.00 | 71 | 1016.7 |
| 20260901104058 | 67 | 221 | 5.0 | 15.0 | 0.00 | 0.00 | 0.00 | 70 | 1016.6 |
| 20260901103557 | 68 | 260 | 6.0 | 14.0 | 0.00 | 0.00 | 0.00 | 70 | 1016.6 |
| 20260901103057 | 67 | 219 | 5.0 | 17.0 | 0.00 | 0.00 | 0.00 | 71 | 1016.6 |
| 20260901102558 | 66 | 298 | 7.0 | 17.0 | 0.00 | 0.00 | 0.00 | 72 | 1016.6 |
| 20260901102102 | 65 | 294 | 5.0 | 12.0 | 0.00 | 0.00 | 0.00 | 73 | 1016.6 |
| 20260901101601 | 65 | 230 | 8.0 | 14.0 | 0.00 | 0.00 | 0.00 | 71 | 1016.5 |
| 20260901101057 | 66 | 273 | 5.0 | 20.0 | 0.00 | 0.00 | 0.00 | 71 | 1016.5 |
| 20260901100557 | 66 | 292 | 5.0 | 20.0 | 0.00 | 0.00 | 0.00 | 71 | 1016.4 |
| 20260901095603 | 66 | 251 | 5.0 | 14.0 | 0.00 | 0.00 | 0.00 | 72 | 1016.3 |
| 20260901095059 | 66 | 258 | 6.0 | 16.0 | 0.00 | 0.00 | 0.00 | 72 | 1016.2 |
| 20260901094558 | 66 | 306 | 7.0 | 16.0 | 0.00 | 0.00 | 0.00 | 74 | 1016.3 |
| 20260901094100 | 65 | 225 | 5.0 | 15.0 | 0.00 | 0.00 | 0.00 | 74 | 1016.3 |
| 20260901093558 | 66 | 246 | 8.0 | 15.0 | 0.00 | 0.00 | 0.00 | 72 | 1016.2 |
| 20260901093103 | 66 | 274 | 6.0 | 17.0 | 0.00 | 0.00 | 0.00 | 73 | 1016.1 |
| 20260901092559 | 66 | 276 | 6.0 | 16.0 | 0.00 | 0.00 | 0.00 | 72 | 1016.1 |
| 20260901092059 | 67 | 236 | 8.0 | 16.0 | 0.00 | 0.00 | 0.00 | 73 | 1016.2 |
| 20260901091604 | 65 | 287 | 4.0 | 18.0 | 0.00 | 0.00 | 0.00 | 76 | 1016.2 |
| 20260901091058 | 64 | 256 | 6.0 | 18.0 | 0.00 | 0.00 | 0.00 | 79 | 1016.2 |
| 20260901090559 | 64 | 218 | 5.0 | 14.0 | 0.00 | 0.00 | 0.00 | 81 | 1016.1 |
| 20260901090059 | 63 | 241 | 5.0 | 12.0 | 0.00 | 0.00 | 0.00 | 81 | 1016.1 |
| 20260901085557 | 63 | 228 | 6.0 | 12.0 | 0.00 | 0.00 | 0.00 | 81 | 1016.1 |
| 20260901085102 | 63 | 229 | 6.0 | 14.0 | 0.00 | 0.00 | 0.00 | 80 | 1016.0 |
| 20260901084558 | 63 | 197 | 5.0 | 14.0 | 0.00 | 0.00 | 0.00 | 81 | 1015.9 |
| 20260901084058 | 64 | 209 | 6.0 | 14.0 | 0.00 | 0.00 | 0.00 | 81 | 1015.8 |
| 20260901083601 | 63 | 271 | 4.0 | 12.0 | 0.00 | 0.00 | 0.00 | 82 | 1015.8 |
| 20260901083059 | 63 | 199 | 8.0 | 12.0 | 0.00 | 0.00 | 0.00 | 82 | 1015.8 |
| 20260901082557 | 63 | 230 | 5.0 | 11.0 | 0.00 | 0.00 | 0.00 | 83 | 1015.8 |
| 20260901082059 | 63 | 230 | 3.0 | 11.0 | 0.00 | 0.00 | 0.00 | 84 | 1015.8 |
| 20260901081558 | 62 | 175 | 3.0 | 10.0 | 0.00 | 0.00 | 0.00 | 85 | 1015.7 |
| 20260901081057 | 62 | 232 | 3.0 | 10.0 | 0.00 | 0.00 | 0.00 | 85 | 1015.7 |
| 20260901080558 | 62 | 225 | 4.0 | 9.0 | 0.00 | 0.00 | 0.00 | 85 | 1015.6 |
| 20260901080105 | 62 | 227 | 3.0 | 10.0 | 0.00 | 0.00 | 0.00 | 86 | 1015.6 |
| 20260901075559 | 62 | 196 | 4.0 | 10.0 | 0.00 | 0.00 | 0.00 | 86 | 1015.7 |
| 20260901075057 | 62 | 214 | 5.0 | 10.0 | 0.00 | 0.00 | 0.00 | 86 | 1015.6 |
| 20260901074559 | 62 | 220 | 4.0 | 7.0 | 0.00 | 0.00 | 0.00 | 86 | 1015.6 |
| 20260901074058 | 62 | 285 | 4.0 | 14.0 | 0.00 | 0.00 | 0.00 | 86 | 1015.6 |
| 20260901073558 | 62 | 202 | 6.0 | 14.0 | 0.00 | 0.00 | 0.00 | 87 | 1015.5 |
| 20260901073103 | 61 | 192 | 5.0 | 8.0 | 0.00 | 0.00 | 0.00 | 87 | 1015.5 |
| 20260901073002 | 61 | 168 | 4.0 | 7.0 | 0.00 | 0.00 | 0.00 | 88 | 1015.5 |
| 20260901072558 | 61 | 180 | 4.0 | 7.0 | 0.00 | 0.00 | 0.00 | 87 | 1015.5 |
| 20260901072059 | 60 | 296 | 3.0 | 10.0 | 0.00 | 0.00 | 0.00 | 88 | 1015.5 |
| 20260901071559 | 60 | 228 | 6.0 | 10.0 | 0.00 | 0.00 | 0.00 | 88 | 1015.4 |
| 20260901071058 | 60 | 227 | 4.0 | 11.0 | 0.00 | 0.00 | 0.00 | 88 | 1015.5 |
| 20260901070558 | 60 | 227 | 4.0 | 10.0 | 0.00 | 0.00 | 0.00 | 88 | 1015.4 |
| 20260901070112 | 60 | 217 | 4.0 | 11.0 | 0.00 | 0.00 | 0.00 | 88 | 1015.3 |
| 20260901065557 | 60 | 234 | 5.0 | 12.0 | 0.00 | 0.00 | 0.00 | 88 | 1015.3 |
| 20260901065059 | 60 | 234 | 5.0 | 9.0 | 0.00 | 0.00 | 0.00 | 88 | 1015.2 |
| 20260901064557 | 60 | 223 | 4.0 | 8.0 | 0.00 | 0.00 | 0.00 | 88 | 1015.2 |
| 20260901064058 | 60 | 223 | 2.0 | 7.0 | 0.00 | 0.00 | 0.00 | 88 | 1015.2 |
| 20260901063557 | 60 | 239 | 3.0 | 7.0 | 0.00 | 0.00 | 0.00 | 87 | 1015.1 |
| 20260901063058 | 61 | 211 | 2.0 | 7.0 | 0.00 | 0.00 | 0.00 | 87 | 1015.1 |
| 20260901062601 | 61 | 207 | 2.0 | 7.0 | 0.00 | 0.00 | 0.00 | 87 | 1015.0 |
| 20260901062059 | 61 | 156 | 3.0 | 7.0 | 0.00 | 0.00 | 0.00 | 87 | 1015.0 |
| 20260901061558 | 61 | 146 | 3.0 | 7.0 | 0.00 | 0.00 | 0.00 | 87 | 1014.9 |
| 20260901061058 | 61 | 211 | 2.0 | 6.0 | 0.00 | 0.00 | 0.00 | 87 | 1014.9 |
| 20260901060557 | 61 | 161 | 2.0 | 7.0 | 0.00 | 0.00 | 0.00 | 87 | 1014.8 |
| 20260901060058 | 60 | 255 | 3.0 | 12.0 | 0.00 | 0.00 | 0.00 | 87 | 1014.8 |
| 20260901055558 | 60 | 228 | 2.0 | 12.0 | 0.00 | 0.00 | 0.00 | 87 | 1014.8 |
| 20260901055057 | 60 | 194 | 1.0 | 7.0 | 0.00 | 0.00 | 0.00 | 87 | 1014.7 |
| 20260901054600 | 60 | 184 | 3.0 | 10.0 | 0.00 | 0.00 | 0.00 | 87 | 1014.7 |
| 20260901054059 | 60 | 161 | 4.0 | 11.0 | 0.00 | 0.00 | 0.00 | 87 | 1014.7 |
| 20260901053601 | 60 | 188 | 5.0 | 12.0 | 0.00 | 0.00 | 0.00 | 87 | 1014.6 |
| 20260901053100 | 60 | 191 | 3.0 | 12.0 | 0.00 | 0.00 | 0.00 | 87 | 1014.6 |
| 20260901052558 | 60 | 221 | 3.0 | 8.0 | 0.00 | 0.00 | 0.00 | 88 | 1014.6 |
| 20260901052057 | 59 | 205 | 4.0 | 8.0 | 0.00 | 0.00 | 0.00 | 88 | 1014.6 |
| 20260901051558 | 59 | 225 | 4.0 | 9.0 | 0.00 | 0.00 | 0.00 | 88 | 1014.6 |
| 20260901051058 | 59 | 211 | 4.0 | 11.0 | 0.00 | 0.00 | 0.00 | 88 | 1014.6 |
| 20260901050557 | 59 | 241 | 6.0 | 11.0 | 0.00 | 0.00 | 0.00 | 88 | 1014.7 |
| 20260901050057 | 59 | 184 | 4.0 | 11.0 | 0.00 | 0.00 | 0.00 | 88 | 1014.6 |
| 20260901045558 | 59 | 179 | 5.0 | 9.0 | 0.00 | 0.00 | 0.00 | 88 | 1014.6 |
| 20260901045057 | 59 | 235 | 5.0 | 10.0 | 0.00 | 0.00 | 0.00 | 88 | 1014.5 |
| 20260901044601 | 58 | 227 | 3.0 | 10.0 | 0.00 | 0.00 | 0.00 | 88 | 1014.5 |
| 20260901044100 | 58 | 211 | 5.0 | 9.0 | 0.00 | 0.00 | 0.00 | 88 | 1014.5 |
| 20260901043558 | 58 | 254 | 4.0 | 8.0 | 0.00 | 0.00 | 0.00 | 88 | 1014.4 |
| 20260901043058 | 58 | 212 | 3.0 | 8.0 | 0.00 | 0.00 | 0.00 | 88 | 1014.3 |
| 20260901042558 | 58 | 209 | 5.0 | 8.0 | 0.00 | 0.00 | 0.00 | 88 | 1014.3 |
| 20260901042057 | 58 | 200 | 5.0 | 9.0 | 0.00 | 0.00 | 0.00 | 88 | 1014.2 |
| 20260901041604 | 58 | 211 | 4.0 | 9.0 | 0.00 | 0.00 | 0.00 | 88 | 1014.2 |
| 20260901041100 | 58 | 202 | 3.0 | 10.0 | 0.00 | 0.00 | 0.00 | 88 | 1014.2 |
| 20260901040558 | 58 | 209 | 5.0 | 10.0 | 0.00 | 0.00 | 0.00 | 88 | 1014.2 |
| 20260901040059 | 58 | 180 | 4.0 | 8.0 | 0.00 | 0.00 | 0.00 | 88 | 1014.1 |
| 20260901035558 | 57 | 217 | 3.0 | 8.0 | 0.00 | 0.00 | 0.00 | 88 | 1014.1 |
| 20260901035057 | 57 | 219 | 3.0 | 7.0 | 0.00 | 0.00 | 0.00 | 88 | 1014.1 |
| 20260901034556 | 57 | 211 | 3.0 | 8.0 | 0.00 | 0.00 | 0.00 | 88 | 1014.0 |
| 20260901034057 | 57 | 239 | 0.0 | 5.0 | 0.00 | 0.00 | 0.00 | 88 | 1014.0 |
| 20260901033558 | 57 | 188 | 1.0 | 6.0 | 0.00 | 0.00 | 0.00 | 88 | 1014.0 |
| 20260901033117 | 57 | 196 | 2.0 | 6.0 | 0.00 | 0.00 | 0.00 | 88 | 1014.0 |
| 20260901032602 | 57 | 209 | 2.0 | 6.0 | 0.00 | 0.00 | 0.00 | 88 | 1014.0 |
| 20260901032058 | 57 | 210 | 3.0 | 6.0 | 0.00 | 0.00 | 0.00 | 88 | 1014.0 |
| 20260901031558 | 57 | 215 | 3.0 | 6.0 | 0.00 | 0.00 | 0.00 | 88 | 1014.0 |
| 20260901031100 | 57 | 202 | 3.0 | 6.0 | 0.00 | 0.00 | 0.00 | 88 | 1013.9 |
| 20260901031002 | 57 | 212 | 3.0 | 6.0 | 0.00 | 0.00 | 0.00 | 88 | 1013.9 |
| 20260901030558 | 56 | 195 | 2.0 | 5.0 | 0.00 | 0.00 | 0.00 | 88 | 1013.9 |
| 20260901030104 | 57 | 195 | 1.0 | 3.0 | 0.00 | 0.00 | 0.00 | 88 | 1013.8 |
| 20260901025558 | 56 | 207 | 0.0 | 3.0 | 0.00 | 0.00 | 0.00 | 88 | 1013.8 |
| 20260901025059 | 57 | 205 | 0.0 | 3.0 | 0.00 | 0.00 | 0.00 | 88 | 1013.8 |
| 20260901024558 | 57 | 182 | 0.0 | 1.0 | 0.00 | 0.00 | 0.00 | 88 | 1013.7 |
| 20260901024058 | 57 | 168 | 0.0 | 2.0 | 0.00 | 0.00 | 0.00 | 88 | 1013.7 |
| 20260901023557 | 57 | 144 | 0.0 | 3.0 | 0.00 | 0.00 | 0.00 | 88 | 1013.7 |
| 20260901023057 | 57 | 222 | 0.0 | 3.0 | 0.00 | 0.00 | 0.00 | 89 | 1013.7 |
| 20260901022557 | 57 | 149 | 0.0 | 3.0 | 0.00 | 0.00 | 0.00 | 89 | 1013.7 |
| 20260901022058 | 57 | 184 | 0.0 | 2.0 | 0.00 | 0.00 | 0.00 | 88 | 1013.6 |
| 20260901021604 | 58 | 133 | 0.0 | 4.0 | 0.00 | 0.00 | 0.00 | 89 | 1013.6 |
| 20260901021057 | 58 | 189 | 2.0 | 4.0 | 0.00 | 0.00 | 0.00 | 89 | 1013.7 |
| 20260901020558 | 58 | 198 | 2.0 | 3.0 | 0.00 | 0.00 | 0.00 | 88 | 1013.7 |
| 20260901020058 | 58 | 207 | 0.0 | 2.0 | 0.00 | 0.00 | 0.00 | 88 | 1013.6 |
| 20260901015558 | 58 | 220 | 0.0 | 1.0 | 0.00 | 0.00 | 0.00 | 88 | 1013.6 |
| 20260901015057 | 59 | 200 | 0.0 | 2.0 | 0.00 | 0.00 | 0.00 | 88 | 1013.5 |
| 20260901014557 | 59 | 204 | 0.0 | 3.0 | 0.00 | 0.00 | 0.00 | 88 | 1013.5 |
| 20260901014058 | 60 | 211 | 1.0 | 3.0 | 0.00 | 0.00 | 0.00 | 88 | 1013.5 |
| 20260901013558 | 60 | 177 | 0.0 | 3.0 | 0.00 | 0.00 | 0.00 | 88 | 1013.5 |
| 20260901013113 | 61 | 218 | 0.0 | 4.0 | 0.00 | 0.00 | 0.00 | 88 | 1013.5 |
| 20260901012558 | 61 | 209 | 1.0 | 6.0 | 0.00 | 0.00 | 0.00 | 88 | 1013.5 |
| 20260901012058 | 61 | 182 | 3.0 | 8.0 | 0.00 | 0.00 | 0.00 | 88 | 1013.4 |
| 20260901011613 | 61 | 163 | 3.0 | 8.0 | 0.00 | 0.00 | 0.00 | 87 | 1013.5 |
| 20260901011057 | 60 | 167 | 4.0 | 7.0 | 0.00 | 0.00 | 0.00 | 87 | 1013.5 |
| 20260901010557 | 60 | 218 | 2.0 | 10.0 | 0.00 | 0.00 | 0.00 | 87 | 1013.5 |
| 20260901010112 | 60 | 175 | 3.0 | 7.0 | 0.00 | 0.00 | 0.00 | 87 | 1013.4 |
| 20260901005556 | 60 | 184 | 3.0 | 7.0 | 0.00 | 0.00 | 0.00 | 86 | 1013.5 |
| 20260901005059 | 60 | 204 | 2.0 | 4.0 | 0.00 | 0.00 | 0.00 | 86 | 1013.5 |
| 20260901004556 | 59 | 186 | 2.0 | 4.0 | 0.00 | 0.00 | 0.00 | 87 | 1013.6 |
| 20260901004057 | 59 | 158 | 1.0 | 4.0 | 0.00 | 0.00 | 0.00 | 87 | 1013.6 |
| 20260901003600 | 59 | 175 | 1.0 | 4.0 | 0.00 | 0.00 | 0.00 | 87 | 1013.7 |
| 20260901003057 | 59 | 220 | 1.0 | 5.0 | 0.00 | 0.00 | 0.00 | 87 | 1013.6 |
| 20260901002559 | 59 | 181 | 1.0 | 5.0 | 0.00 | 0.00 | 0.00 | 87 | 1013.6 |
| 20260901002058 | 59 | 193 | 2.0 | 4.0 | 0.00 | 0.00 | 0.00 | 87 | 1013.6 |
| 20260901001557 | 59 | 207 | 2.0 | 4.0 | 0.00 | 0.00 | 0.00 | 87 | 1013.6 |
| 20260901001057 | 59 | 216 | 2.0 | 5.0 | 0.00 | 0.00 | 0.00 | 87 | 1013.5 |
| 20260901000556 | 59 | 190 | 2.0 | 6.0 | 0.00 | 0.00 | 0.00 | 87 | 1013.5 |
| 20260901000056 | 58 | 207 | 2.0 | 4.0 | 0.00 | 0.00 | 0.00 | 87 | 1013.3 |
| 20260831235557 | 58 | 211 | 2.0 | 5.0 | 0.00 | 0.00 | 0.00 | 87 | 1013.3 |
| 20260831235058 | 59 | 207 | 2.0 | 5.0 | 0.00 | 0.00 | 0.00 | 87 | 1013.2 |
| 20260831234601 | 58 | 200 | 1.0 | 3.0 | 0.00 | 0.00 | 0.00 | 87 | 1013.3 |
| 20260831234057 | 58 | 219 | 0.0 | 1.0 | 0.00 | 0.00 | 0.00 | 87 | 1013.1 |
| 20260831233558 | 59 | 142 | 0.0 | 4.0 | 0.00 | 0.00 | 0.00 | 88 | 1013.2 |
| 20260831233100 | 59 | 155 | 2.0 | 4.0 | 0.00 | 0.00 | 0.00 | 87 | 1013.3 |
| 20260831232556 | 59 | 202 | 0.0 | 4.0 | 0.00 | 0.00 | 0.00 | 88 | 1013.4 |
| 20260831232101 | 59 | 194 | 2.0 | 4.0 | 0.00 | 0.00 | 0.00 | 88 | 1013.3 |
| 20260831231601 | 58 | 211 | 2.0 | 4.0 | 0.00 | 0.00 | 0.00 | 88 | 1013.3 |
| 20260831231057 | 58 | 202 | 1.0 | 3.0 | 0.00 | 0.00 | 0.00 | 88 | 1013.3 |
| 20260831230601 | 58 | 192 | 0.0 | 3.0 | 0.00 | 0.00 | 0.00 | 88 | 1013.3 |
| 20260831225601 | 59 | 144 | 0.0 | 1.0 | 0.00 | 0.00 | 0.00 | 88 | 1013.4 |
| 20260831225059 | 59 | 101 | 0.0 | 2.0 | 0.00 | 0.00 | 0.00 | 88 | 1013.3 |
| 20260831224600 | 59 | 116 | 0.0 | 1.0 | 0.00 | 0.00 | 0.00 | 88 | 1013.4 |
| 20260831224101 | 59 | 132 | 0.0 | 3.0 | 0.00 | 0.00 | 0.00 | 88 | 1013.5 |
| 20260831223601 | 60 | 194 | 0.0 | 3.0 | 0.00 | 0.00 | 0.00 | 88 | 1013.5 |
| 20260831223101 | 60 | 219 | 0.0 | 2.0 | 0.00 | 0.00 | 0.00 | 88 | 1013.5 |
| 20260831222600 | 60 | 218 | 0.0 | 0.0 | 0.00 | 0.00 | 0.00 | 88 | 1013.4 |
| 20260831222102 | 60 | 207 | 0.0 | 0.0 | 0.00 | 0.00 | 0.00 | 88 | 1013.4 |
| 20260831221608 | 60 | 215 | 0.0 | 1.0 | 0.00 | 0.00 | 0.00 | 88 | 1013.4 |
| 20260831221059 | 60 | 184 | 0.0 | 3.0 | 0.00 | 0.00 | 0.00 | 88 | 1013.4 |
| 20260831220559 | 60 | 207 | 0.0 | 3.0 | 0.00 | 0.00 | 0.00 | 88 | 1013.5 |
| 20260831220109 | 60 | 209 | 1.0 | 3.0 | 0.00 | 0.00 | 0.00 | 88 | 1013.6 |
| 20260831220006 | 60 | 200 | 1.0 | 3.0 | 0.00 | 0.00 | 0.00 | 88 | 1013.7 |
| 20260831215559 | 60 | 202 | 0.0 | 3.0 | 0.00 | 0.00 | 0.00 | 88 | 1013.7 |
| 20260831215100 | 60 | 202 | 1.0 | 3.0 | 0.00 | 0.00 | 0.00 | 88 | 1013.6 |
| 20260831214610 | 60 | 209 | 0.0 | 2.0 | 0.00 | 0.00 | 0.00 | 88 | 1013.6 |
| 20260831214100 | 60 | 180 | 0.0 | 3.0 | 0.00 | 0.00 | 0.00 | 88 | 1013.6 |
| 20260831213559 | 60 | 200 | 0.0 | 3.0 | 0.00 | 0.00 | 0.00 | 88 | 1013.6 |
| 20260831213102 | 60 | 176 | 0.0 | 2.0 | 0.00 | 0.00 | 0.00 | 88 | 1013.6 |
| 20260831212600 | 60 | 207 | 0.0 | 1.0 | 0.00 | 0.00 | 0.00 | 88 | 1013.6 |
| 20260831212103 | 60 | 186 | 0.0 | 2.0 | 0.00 | 0.00 | 0.00 | 88 | 1013.7 |
| 20260831211600 | 60 | 177 | 0.0 | 2.0 | 0.00 | 0.00 | 0.00 | 88 | 1013.7 |
| 20260831211100 | 59 | 207 | 0.0 | 2.0 | 0.00 | 0.00 | 0.00 | 88 | 1013.7 |
| 20260831210558 | 59 | 197 | 0.0 | 0.0 | 0.00 | 0.00 | 0.00 | 88 | 1013.7 |
| 20260831210100 | 59 | 197 | 0.0 | 1.0 | 0.00 | 0.00 | 0.00 | 88 | 1013.7 |
| 20260831210001 | 59 | 197 | 0.0 | 1.0 | 0.00 | 0.00 | 0.00 | 88 | 1013.7 |